GW0206 Weather Reports


Display with metric or nautical units.
time (UTC)temp
F
wind
direction
speed
MPH
gust
MPH
rain 1hr
in
rain 24hr
in
rain mn
in
humidity
%
barometer
mb
20260505014002 64 55 6.0 14.0 0.00 0.00 0.00 65 1006.2
20260505013502 64 51 5.0 14.0 0.00 0.00 0.00 65 1006.2
20260505013004 64 28 5.0 14.0 0.00 0.00 0.00 65 1006.1
20260505012502 65 57 8.0 14.0 0.00 0.00 0.00 64 1006.1
20260505012003 65 55 5.0 14.0 0.00 0.00 0.00 64 1006.1
20260505011504 65 66 6.0 15.0 0.00 0.00 0.00 64 1006.1
20260505011004 65 24 9.0 15.0 0.00 0.00 0.00 63 1006.0
20260505010503 65 49 4.0 13.0 0.00 0.00 0.00 62 1005.8
20260505010012 66 75 7.0 15.0 0.00 0.00 0.00 62 1005.7
20260505005504 66 78 6.0 18.0 0.00 0.00 0.00 62 1005.7
20260505005004 66 39 9.0 19.0 0.00 0.00 0.00 62 1005.7
20260505004503 66 58 11.0 19.0 0.00 0.00 0.00 61 1005.7
20260505004003 66 63 8.0 20.0 0.00 0.00 0.00 61 1005.7
20260505003503 67 28 8.0 20.0 0.00 0.00 0.00 61 1005.6
20260505003012 67 38 9.0 19.0 0.00 0.00 0.00 60 1005.5
20260505002503 67 63 8.0 16.0 0.00 0.00 0.00 60 1005.4
20260505002005 67 65 10.0 17.0 0.00 0.00 0.00 60 1005.4
20260505001508 67 13 9.0 17.0 0.00 0.00 0.00 60 1005.2
20260505001005 67 32 7.0 16.0 0.00 0.00 0.00 60 1005.2
20260505000505 67 22 8.0 14.0 0.00 0.00 0.00 59 1005.2
20260505000014 67 22 9.0 14.0 0.00 0.00 0.00 59 1005.1
20260504235503 68 15 7.0 16.0 0.00 0.00 0.00 58 1005.1
20260504235003 68 14 7.0 18.0 0.00 0.00 0.00 58 1005.0
20260504234504 68 70 8.0 18.0 0.00 0.00 0.00 57 1005.0
20260504234003 69 20 8.0 19.0 0.00 0.00 0.00 57 1005.0
20260504233503 69 57 10.0 19.0 0.00 0.00 0.00 57 1005.0
20260504233005 69 72 8.0 18.0 0.00 0.00 0.00 56 1005.0
20260504232503 70 55 8.0 17.0 0.00 0.00 0.00 56 1005.0
20260504232004 70 61 10.0 16.0 0.00 0.00 0.00 55 1005.1
20260504231520 70 71 9.0 17.0 0.00 0.00 0.00 55 1005.0
20260504231003 70 61 10.0 22.0 0.00 0.00 0.00 56 1005.0
20260504230503 70 68 10.0 23.0 0.00 0.00 0.00 56 1005.1
20260504230006 70 25 9.0 25.0 0.00 0.00 0.00 56 1005.0
20260504225502 70 65 14.0 25.0 0.00 0.00 0.00 56 1005.1
20260504225003 70 61 10.0 24.0 0.00 0.00 0.00 57 1005.1
20260504224510 70 5 14.0 24.0 0.00 0.00 0.00 57 1005.2
20260504224004 70 69 10.0 22.0 0.00 0.00 0.00 57 1005.2
20260504223504 71 49 10.0 22.0 0.00 0.00 0.00 56 1005.3
20260504223011 71 26 10.0 22.0 0.00 0.00 0.00 56 1005.3
20260504222504 70 55 13.0 23.0 0.00 0.00 0.00 56 1005.2
20260504222005 70 94 9.0 23.0 0.00 0.00 0.00 57 1005.3
20260504221508 70 53 13.0 23.0 0.00 0.00 0.00 55 1005.4
20260504221006 71 63 12.0 24.0 0.00 0.00 0.00 55 1005.5
20260504220507 72 56 15.0 24.0 0.00 0.00 0.00 54 1005.5
20260504220004 72 76 11.0 19.0 0.00 0.00 0.00 55 1005.5
20260504215505 72 41 12.0 24.0 0.00 0.00 0.00 56 1005.4
20260504215004 72 53 8.0 24.0 0.00 0.00 0.00 56 1005.4
20260504214508 72 79 10.0 19.0 0.00 0.00 0.00 55 1005.4
20260504214005 72 49 8.0 19.0 0.00 0.00 0.00 55 1005.4
20260504213503 73 82 11.0 19.0 0.00 0.00 0.00 52 1005.4
20260504213007 73 67 7.0 20.0 0.00 0.00 0.00 53 1005.4
20260504212506 73 52 10.0 22.0 0.00 0.00 0.00 54 1005.3
20260504212004 73 73 13.0 22.0 0.00 0.00 0.00 54 1005.5
20260504211513 73 56 11.0 22.0 0.00 0.00 0.00 55 1005.5
20260504211003 72 63 9.0 22.0 0.00 0.00 0.00 56 1005.5
20260504210503 72 27 10.0 22.0 0.00 0.00 0.00 56 1005.6
20260504210018 72 59 11.0 26.0 0.00 0.00 0.00 57 1005.5
20260504205507 71 62 13.0 26.0 0.00 0.00 0.00 55 1005.6
20260504205006 72 74 14.0 24.0 0.00 0.00 0.00 53 1005.7
20260504204509 72 37 11.0 21.0 0.00 0.00 0.00 57 1005.8
20260504204007 71 32 10.0 19.0 0.00 0.00 0.00 55 1005.6
20260504203507 71 28 8.0 18.0 0.00 0.00 0.00 55 1005.6
20260504203028 72 5 5.0 17.0 0.00 0.00 0.00 55 1005.6
20260504202502 72 69 10.0 20.0 0.00 0.00 0.00 54 1005.8
20260504202001 72 57 11.0 20.0 0.00 0.00 0.00 53 1005.9
20260504201508 73 31 10.0 27.0 0.00 0.00 0.00 53 1005.8
20260504201003 73 75 12.0 27.0 0.00 0.00 0.00 53 1005.8
20260504200504 73 62 8.0 18.0 0.00 0.00 0.00 53 1005.9
20260504200016 73 55 10.0 19.0 0.00 0.00 0.00 53 1006.0
20260504195504 73 42 9.0 19.0 0.00 0.00 0.00 55 1006.2
20260504195004 72 62 8.0 18.0 0.00 0.00 0.00 54 1006.1
20260504194522 72 57 8.0 26.0 0.00 0.00 0.00 56 1006.2
20260504194005 71 16 11.0 26.0 0.00 0.00 0.00 54 1006.2
20260504193506 71 45 8.0 23.0 0.00 0.00 0.00 55 1006.3
20260504193017 71 53 10.0 23.0 0.00 0.00 0.00 55 1006.6
20260504192506 71 67 9.0 22.0 0.00 0.00 0.00 57 1006.6
20260504192013 71 19 10.0 22.0 0.00 0.00 0.00 56 1006.7
20260504191513 71 41 11.0 23.0 0.00 0.00 0.00 56 1006.8
20260504191002 70 59 11.0 24.0 0.00 0.00 0.00 55 1006.7
20260504190503 70 39 11.0 24.0 0.00 0.00 0.00 55 1006.8
20260504190011 70 51 12.0 23.0 0.00 0.00 0.00 54 1006.9
20260504185504 70 360 9.0 23.0 0.00 0.00 0.00 55 1006.8
20260504185007 70 24 12.0 25.0 0.00 0.00 0.00 55 1006.9
20260504184523 70 46 7.0 25.0 0.00 0.00 0.00 59 1007.0
20260504184011 70 32 13.0 22.0 0.00 0.00 0.00 55 1007.0
20260504183508 70 48 11.0 20.0 0.00 0.00 0.00 54 1007.0
20260504183020 70 53 10.0 20.0 0.00 0.00 0.00 56 1007.1
20260504182512 70 103 11.0 19.0 0.00 0.00 0.00 56 1007.0
20260504182003 69 38 10.0 19.0 0.00 0.00 0.00 58 1007.0
20260504181517 70 51 10.0 18.0 0.00 0.00 0.00 56 1007.2
20260504181012 69 85 9.0 18.0 0.00 0.00 0.00 57 1007.1
20260504180513 69 67 10.0 18.0 0.00 0.00 0.00 56 1007.2
20260504180014 69 5 8.0 17.0 0.00 0.00 0.00 56 1007.2
20260504175509 69 71 10.0 17.0 0.00 0.00 0.00 56 1007.5
20260504175005 69 69 11.0 18.0 0.00 0.00 0.00 56 1007.4
20260504174513 69 339 12.0 18.0 0.00 0.00 0.00 57 1007.6
20260504174003 68 59 8.0 21.0 0.00 0.00 0.00 54 1007.6
20260504173502 68 92 12.0 21.0 0.00 0.00 0.00 57 1007.7
20260504173005 68 15 7.0 18.0 0.00 0.00 0.00 54 1007.7
20260504172502 68 24 7.0 17.0 0.00 0.00 0.00 58 1007.7
20260504172003 68 28 8.0 16.0 0.00 0.00 0.00 54 1007.8
20260504171505 68 355 8.0 18.0 0.00 0.00 0.00 55 1007.8
20260504171003 68 44 9.0 18.0 0.00 0.00 0.00 55 1007.8
20260504170503 67 65 9.0 19.0 0.00 0.00 0.00 59 1007.9
20260504151005 62 360 6.0 14.0 0.00 0.00 0.00 61 1008.9
20260504150503 62 26 8.0 14.0 0.00 0.00 0.00 60 1008.9
20260504141006 60 29 5.0 13.0 0.00 0.00 0.00 62 1009.3
20260504140504 59 27 7.0 14.0 0.00 0.00 0.00 61 1009.3
20260504130504 56 63 7.0 13.0 0.00 0.00 0.00 62 1009.7
20260504110508 48 51 4.0 10.0 0.00 0.00 0.00 70 1009.5
20260504100514 48 347 3.0 8.0 0.00 0.00 0.00 69 1009.2
20260504082005 50 23 5.0 11.0 0.00 0.00 0.00 63 1009.9
20260504081518 50 38 4.0 11.0 0.00 0.00 0.00 63 1010.0
20260504081005 50 45 6.0 11.0 0.00 0.00 0.00 63 1010.1
20260504080502 50 24 6.0 11.0 0.00 0.00 0.00 62 1010.1
20260504050509 48 17 2.0 5.0 0.00 0.00 0.00 69 1012.2
20260504050016 48 30 3.0 5.0 0.00 0.00 0.00 69 1012.3
20260504045507 48 32 2.0 5.0 0.00 0.00 0.00 68 1012.4
20260504045007 48 17 2.0 5.0 0.00 0.00 0.00 68 1012.4
20260504044518 49 28 2.0 6.0 0.00 0.00 0.00 68 1012.4
20260504044007 49 37 3.0 6.0 0.00 0.00 0.00 67 1012.4
20260504043507 49 42 2.0 5.0 0.00 0.00 0.00 67 1012.4
20260504043038 49 31 2.0 6.0 0.00 0.00 0.00 67 1012.4
20260504042504 49 19 2.0 7.0 0.00 0.00 0.00 66 1012.4
20260504042008 50 40 3.0 7.0 0.00 0.00 0.00 66 1012.4
20260504041535 50 42 2.0 6.0 0.00 0.00 0.00 66 1012.4
20260504041009 50 59 3.0 6.0 0.00 0.00 0.00 66 1012.5
20260504040509 50 33 3.0 8.0 0.00 0.00 0.00 66 1012.7
20260504040018 50 58 4.0 8.0 0.00 0.00 0.00 66 1012.7
20260504035508 50 42 3.0 7.0 0.00 0.00 0.00 66 1012.7
20260504035005 50 15 3.0 8.0 0.00 0.00 0.00 66 1012.7
20260504034519 50 28 3.0 8.0 0.00 0.00 0.00 66 1012.8
20260504034010 50 51 3.0 8.0 0.00 0.00 0.00 66 1012.8
20260504033506 50 69 4.0 8.0 0.00 0.00 0.00 66 1012.8
20260504033019 50 65 4.0 8.0 0.00 0.00 0.00 66 1012.8
20260504032507 50 50 3.0 6.0 0.00 0.00 0.00 65 1012.7
20260504032011 50 28 3.0 5.0 0.00 0.00 0.00 65 1012.8
20260504031526 50 50 3.0 8.0 0.00 0.00 0.00 65 1012.8
20260504031006 50 59 4.0 8.0 0.00 0.00 0.00 65 1012.9
20260504030512 50 42 3.0 7.0 0.00 0.00 0.00 65 1012.8
20260504030032 50 76 3.0 8.0 0.00 0.00 0.00 64 1012.9
20260504025509 50 63 5.0 9.0 0.00 0.00 0.00 64 1012.9
20260504025006 50 82 5.0 10.0 0.00 0.00 0.00 64 1013.0
20260504024521 50 57 4.0 16.0 0.00 0.00 0.00 63 1013.0
20260504024008 50 72 5.0 16.0 0.00 0.00 0.00 63 1013.1
20260504023507 50 65 9.0 16.0 0.00 0.00 0.00 63 1013.2
20260504023003 50 77 6.0 16.0 0.00 0.00 0.00 63 1013.3
20260504022502 50 74 9.0 16.0 0.00 0.00 0.00 62 1013.3
20260504022002 50 76 4.0 12.0 0.00 0.00 0.00 61 1013.4
20260504021503 50 83 6.0 12.0 0.00 0.00 0.00 60 1013.3
20260504021001 50 49 7.0 14.0 0.00 0.00 0.00 60 1013.2
20260504020501 50 76 6.0 15.0 0.00 0.00 0.00 59 1013.2
20260504020003 51 98 7.0 20.0 0.00 0.00 0.00 58 1013.2
20260504015503 50 74 9.0 20.0 0.00 0.00 0.00 57 1013.1
20260504015004 50 80 6.0 11.0 0.00 0.00 0.00 57 1012.9
20260504014505 51 59 4.0 9.0 0.00 0.00 0.00 57 1012.9